Location: Fiume Tammaricchio
(41.2667°N, 14.8833°E)
Time: 07:07:50
(UTC+00:00)

Daily predictions for brighter satellites

Satellite Brightness Start Highest point End
(mag) Time Altitude Azimuth Time Altitude Azimuth Time Altitude Azimuth
SPOT 5 3.2 18:52:18 10° SSE 18:57:27 63° ENE 19:02:42 10° N
Cosmos 292 Rocket 3.8 18:55:14 10° SSW 19:00:01 87° WNW 19:04:48 10° NNE
CSL-04 Debris 4.3 18:57:37 10° SSE 19:02:59 85° WSW 19:08:22 10° NNW
Tsikada Rocket 4.1 18:56:53 10° S 19:03:09 66° E 19:09:31 10° NNE
ERS-1 Rocket 3.7 18:58:56 10° SE 19:03:27 36° ENE 19:07:59 10° N
ADEOS 3.7 18:58:19 10° SSE 19:03:31 83° WSW 19:08:46 10° NNW
Cosmos 2297 4.3 18:58:44 10° S 19:03:49 36° ESE 19:08:56 10° NE
USA 186 1.3 19:01:08 10° SSE 19:03:50 86° ENE 19:06:34 10° N
Resurs 01 Rocket 3.4 19:00:30 10° SSW 19:04:28 33° W 19:08:29 10° NNW
Cosmos 1656 Rocket 3.6 19:04:52 10° SSW 19:10:24 73° ESE 19:15:54 10° NNE
CSL-04 Rocket 4.0 19:07:05 10° S 19:12:27 70° WSW 19:17:55 10° NNW
COSMOS 2406 3.3 19:07:20 10° NNW 19:13:06 80° ENE 19:18:50 10° SSE
Okean-O 3.4 19:09:12 10° SE 19:13:08 34° ENE 19:17:07 10° N
TRACE 2.4 19:12:22 10° NNE 19:14:05 82° ESE 19:15:45 10° S
Cosmos 1378 Rocket 4.3 19:11:49 10° SSE 19:15:38 32° E 19:19:28 10° NNE
SL-08 R/B 4.1 19:13:54 10° N 19:18:25 56° WNW 19:22:59 10° SSW
CZ-4B R/B 3.2 19:13:19 10° SSE 19:18:40 87° WSW 19:24:11 10° NNW
Okean O Rocket 1.8 19:15:38 10° SSE 19:19:52 54° ENE 19:24:09 10° N
Cosmos 2082 Rocket 3.2 19:23:38 10° NW 19:29:03 45° WSW 19:34:26 10° S
CZ-4 R/B 3.4 19:28:01 10° SSW 19:31:04 24° W 19:34:10 10° NW
Cosmos 2208 Rocket 4.0 19:28:24 10° NNW 19:33:41 82° ENE 19:38:45 11° SSE
Cosmos 1503 Rocket 4.0 19:30:22 10° S 19:35:27 63° ESE 19:40:33 10° NNE
MOS 1 4.4 19:32:01 10° SSE 19:37:39 83° WSW 19:43:20 10° NNW
Cosmos 2369 Rocket 2.2 19:33:23 10° SSW 19:39:02 70° ESE 19:44:42 10° NNE
Cosmos 1354 Rocket 4.1 19:39:52 10° S 19:44:56 54° ESE 19:50:01 10° NNE
Cosmos 773 Rocket 4.0 19:44:15 10° NNW 19:49:33 88° WSW 19:53:57 15° SSE
ASTEX 1 4.0 19:45:28 10° NNE 19:49:56 36° E 19:52:49 19° SE
DELTA 2 R/B (1) 3.8 19:46:28 10° SW 19:51:45 47° SSE 19:57:03 10° E
Ariane Rocket 3.8 19:52:52 19° ESE 19:55:54 35° ENE 20:00:28 10° N
CZ-4B R/B 3.8 19:54:08 10° S 19:57:28 39° W 20:00:58 10° NNW
CZ-4C R/B 1.9 19:53:46 10° S 19:57:35 43° ESE 20:02:15 10° NE
Cosmos 1340 Rocket 3.0 19:55:47 10° NNW 19:59:36 63° W 20:02:38 15° S
CZ-4B R/B 4.3 19:55:04 10° S 20:00:08 49° W 20:05:09 10° NNW
Cosmos 2263 4.1 19:54:34 10° SSW 20:00:13 76° ESE 20:05:52 10° NNE
ISS -0.9 19:58:29 10° NNW 20:00:24 14° N 20:02:18 10° NE
Okean 2 Rocket 3.2 19:59:01 10° N 20:03:20 57° E 20:05:44 25° SSE
Tiangong -1.6 20:02:06 10° SW 20:05:09 38° SSE 20:05:42 35° SE
Cosmos 1777 Rocket 4.4 20:00:09 10° SSW 20:05:20 65° WNW 20:10:31 10° NNE
Cosmos 1869 2.9 20:02:11 10° N 20:05:45 85° E 20:07:37 26° S
BREEZE-M DEB (TANK) 1.5 20:05:13 10° SW 20:07:24 75° SE 20:11:40 10° ENE
Cosmos 44 2.9 20:05:14 10° SSW 20:09:26 61° ESE 20:13:45 10° NE
Cosmos 2151 Rocket 3.5 20:05:38 10° N 20:10:10 86° E 20:12:58 23° S
Nadezhda 4 Rocket 4.1 20:06:35 16° SSE 20:11:32 59° E 20:17:44 10° NNE
Helios 1B rocket 3.6 20:11:56 12° SSW 20:14:58 33° W 20:18:21 10° NNW
Cosmos 1975 Rocket 4.4 20:16:28 21° E 20:16:51 21° E 20:20:07 10° NE
Okean 1 Rocket 3.1 20:13:11 10° N 20:17:31 63° E 20:19:24 32° SSE
Cosmos 2221 Rocket 3.5 20:15:21 18° S 20:18:42 86° E 20:23:15 10° N
Helios 1A 3.7 20:15:40 10° N 20:19:28 49° WNW 20:23:16 10° SSW
Cosmos 2285 Rocket 4.2 20:14:50 16° S 20:19:46 53° ESE 20:25:58 10° NNE
Terra 2.8 20:18:53 13° SSW 20:22:49 43° W 20:27:19 10° NNW
Cosmos 1867 4.0 20:22:16 26° SSE 20:24:33 39° ESE 20:29:35 10° NE
TSX-5 4.0 20:21:39 10° NW 20:24:43 46° WSW 20:25:51 32° SSW
SPOT 3 Rocket 3.5 20:23:33 28° SSE 20:26:20 77° ENE 20:31:34 10° N
NOSS 3-4 (A) 3.9 20:21:02 10° NW 20:28:05 84° WSW 20:33:06 26° SSE
NOSS 3-4 (C) 3.9 20:21:04 10° NW 20:28:07 85° WSW 20:33:06 26° SSE
Cosmos 1455 Rocket 3.7 20:25:04 10° N 20:29:05 37° ENE 20:30:04 32° ESE
Cosmos 2026 Rocket 4.4 20:27:47 28° SE 20:30:22 43° E 20:36:03 10° NNE
Spot 2 Rocket 3.9 20:27:14 20° S 20:30:38 60° W 20:35:40 10° NNW
IRS-1C Rocket 4.1 20:32:23 27° S 20:35:20 77° WSW 20:40:38 10° NNW
Sich 1 Rocket 3.8 20:31:02 10° NNW 20:35:36 73° W 20:37:45 30° S
Cosmos 1428 Rocket 4.4 20:33:01 24° S 20:36:51 73° E 20:43:02 10° NNE
Cosmos 1898 Rocket 3.9 20:36:10 35° SE 20:37:22 40° ESE 20:42:14 10° NE
Cosmos 1818 3.5 20:35:12 10° NNW 20:40:40 85° WSW 20:42:53 37° SSE
Cosmos 1833 4.1 20:36:36 10° NNW 20:42:19 86° ENE 20:44:42 36° SSE
USA 245 4.5 20:40:43 22° SSW 20:43:01 38° WSW 20:46:28 10° NNW
Cosmos 1538 Rocket 4.3 20:40:40 10° N 20:45:56 55° ENE 20:47:45 37° ESE
PSLV R/B 3.1 20:49:19 82° NNE 20:49:19 82° NNE 20:52:22 10° NNW
Cosmos 1092 Rocket 4.1 20:50:30 35° SSE 20:53:09 62° E 20:59:23 10° NNE
Cosmos 1812 2.3 20:50:41 10° NNW 20:53:43 69° WNW 20:53:43 69° WNW
Cosmos 1900 4.4 20:50:18 13° SSW 20:54:49 83° WNW 20:59:56 10° NNE
Okean O Rocket 4.2 20:54:15 10° WSW 20:56:23 13° W 20:58:32 10° WNW
Cosmos 1025 Rocket 4.3 20:54:32 16° SW 20:57:38 38° WNW 21:01:43 10° N
Meteor 2-1 Rocket 4.3 20:53:29 10° NNW 20:59:18 77° W 21:01:41 37° S
Cosmos 1656 4.2 21:05:49 38° ESE 21:05:58 38° ESE 21:11:03 10° NE
Aureole 1 Rocket 4.1 21:03:25 24° SSW 21:07:33 89° WNW 21:14:59 10° NNE
DELTA 2 DEB (DPAF) 4.3 21:08:48 10° NNE 21:11:59 45° ENE 21:11:59 45° ENE
RESURS DK-1 4.1 21:13:44 10° N 21:16:50 21° NE 21:17:10 21° ENE
Cosmos 372 Rocket 3.9 21:14:59 38° SSW 21:16:57 78° WNW 21:22:03 10° NNE
Cosmos 1544 Rocket 4.3 21:15:29 10° N 21:19:31 40° ENE 21:19:31 40° ENE
DNEPR-1 R/B 3.6 21:20:07 10° NNW 21:24:18 62° NE 21:24:32 61° ENE
Cosmos 1400 Rocket 4.1 21:25:38 10° N 21:28:20 29° NE 21:28:20 29° NE
Meteor 1-27 4.1 21:26:45 10° N 21:32:32 87° W 21:33:45 58° S
Cosmos 1937 Rocket 3.4 21:34:18 57° SSW 21:35:22 82° WNW 21:40:30 10° NNE
DELTA 2 R/B (1) 3.4 21:32:21 10° W 21:37:53 76° S 21:38:43 63° ESE
ISS -2.0 21:34:55 10° NW 21:37:42 29° NNE 21:37:42 29° NNE
Cosmos 2297 Rocket 3.2 21:32:48 10° N 21:37:57 34° ENE 21:39:27 30° E
Cosmos 2098 Rocket 3.4 21:38:15 10° NNW 21:40:46 49° NNW 21:40:46 49° NNW
Cosmos 1680 Rocket 3.8 21:36:43 10° N 21:41:54 54° ENE 21:42:31 51° E
ALOS 2 4.0 21:44:36 28° ENE 21:44:36 28° ENE 21:48:16 10° N
Cosmos 1980 Rocket 4.4 21:46:39 11° E 21:46:39 11° E 21:47:06 10° ENE
CZ-4C R/B 4.1 21:42:26 10° W 21:46:06 24° NW 21:50:31 10° NNE
Cosmos 858 Rocket 4.4 21:48:12 70° SSW 21:48:47 85° WNW 21:54:00 10° NNE
Cosmos 1697 Rocket 3.8 21:50:21 29° E 21:50:21 29° E 21:54:25 10° NE
Cosmos 381 Rocket 4.4 21:44:33 10° NNW 21:50:51 75° WSW 21:52:07 57° S
Cosmos 2360 4.2 21:51:09 63° ESE 21:51:18 63° ESE 21:56:57 10° NNE
Cosmos 923 Rocket 3.8 21:48:02 10° NNW 21:53:15 88° WSW 21:53:32 80° S
Lacrosse 5 rocket 4.2 21:52:05 10° N 21:53:31 12° NNE 21:54:57 10° NE
Cosmos 1975 Rocket 4.5 21:53:27 28° W 21:54:23 30° WNW 21:58:12 10° NNW
MetOp-A 4.2 21:55:24 43° NNE 21:55:24 43° NNE 21:58:14 10° N
Cosmos 2228 3.8 21:59:30 10° NNW 22:03:10 43° WNW 22:03:10 43° WNW
Cosmos 2227 Rocket 3.6 22:05:44 10° N 22:10:40 29° NE 22:12:20 25° E
GEOS 3 Rocket 4.0 22:06:19 10° NE 22:10:45 51° E 22:10:45 51° E
Gbstr 26 Del rocket 4.2 22:07:02 10° NW 22:12:30 59° NNE 22:15:20 33° E
Cosmos 494 Rocket 4.1 22:09:23 10° NNW 22:14:33 61° ENE 22:14:39 61° ENE
Cosmos 2266 Rocket 3.9 22:19:20 67° S 22:20:20 87° E 22:26:47 10° N
Spot 4 3.8 22:21:20 79° N 22:21:20 79° N 22:25:51 10° NNW
CZ-2C R/B 4.4 22:18:52 10° N 22:23:26 49° WNW 22:23:40 49° W
ARIANE 5 R/B 3.4 22:30:39 46° WNW 22:30:39 46° WNW 22:34:17 10° NNW
Cosmos 2315 Rocket 4.0 22:29:07 10° N 22:35:30 70° E 22:36:19 63° SE
Cosmos 883 Rocket 4.4 22:32:06 10° N 22:38:29 78° E 22:39:13 69° SE
BlueWalker 3 3.8 22:35:04 10° NW 22:36:56 27° NNW 22:36:56 27° NNW
ATLAS 2AS CENTAUR R/B 4.0 22:45:55 10° NNW 22:52:00 34° NE 22:57:03 14° E
RESURS DK-1 4.4 22:50:47 10° NW 22:52:29 21° WNW 22:52:29 21° WNW
S3M 4.1 22:49:35 10° NNW 22:55:47 61° W 22:56:23 58° WSW
Cosmos 2263 Rocket 3.3 22:53:04 10° N 22:58:13 35° ENE 22:59:46 30° E
USA 215 3.5 22:58:08 29° ESE 23:01:37 64° NE 23:08:04 10° NW
Cosmos 1932 4.4 23:08:26 65° WSW 23:09:20 78° NW 23:15:43 10° NNE
Cosmos 1655 Rocket 4.0 23:09:38 62° SW 23:10:28 69° W 23:16:51 10° N
SL-16 R/B 4.2 23:17:31 15° E 23:17:31 15° E 23:20:37 10° ENE
ALOS 2 4.4 23:22:00 23° WNW 23:22:00 23° WNW 23:24:31 10° NW
Cosmos 2297 Rocket 3.2 23:16:52 10° NW 23:21:13 33° W 23:21:13 33° W
Cosmos 2219 4.0 23:17:55 10° NNW 23:23:23 45° ENE 23:24:45 38° E
Cosmos 2058 Rocket 3.7 23:20:29 10° N 23:23:59 55° NNW 23:23:59 55° NNW
Cosmos 1980 Rocket 2.0 23:28:23 89° W 23:28:25 89° WNW 23:34:03 10° NNE
Orbus 7S? 4.0 23:29:20 75° NW 23:29:20 75° NW 23:37:09 10° NE
Nadezhda 2 Rocket 4.4 23:28:33 70° SSE 23:29:18 82° E 23:35:43 10° N
Lacrosse 5 rocket 2.6 23:28:05 10° NNW 23:31:05 36° N 23:31:05 36° N
Cosmos 1697 Rocket 3.7 23:32:03 34° W 23:33:18 38° WNW 23:38:35 10° N
CZ-2C R/B 3.1 23:36:53 49° ESE 23:37:47 55° ENE 23:43:15 10° N
Cosmos 1602 Rocket 4.4 23:45:39 45° ENE 23:45:39 45° ENE 23:49:07 10° NNE
Cosmos 1758 Rocket 4.0 23:47:54 60° NNE 23:47:54 60° NNE 23:51:34 10° N
Meteor 2-3 Rocket 4.4 23:46:45 41° W 23:47:21 42° WNW 23:52:50 10° N
Cosmos 1626 Rocket 4.1 23:49:13 56° NNW 23:49:13 56° NNW 23:52:48 10° N
CENTAUR R/B 3.6 23:49:44 25° ESE 23:49:47 25° ESE 23:54:43 10° NE
IDEFIX/ARIANE 42P 4.0 23:46:26 10° NE 23:50:42 26° E 23:51:12 25° ESE
Cosmos 1125 Rocket 4.3 23:52:54 40° WNW 23:53:21 41° WNW 23:58:19 10° N
